Tracking 19574 objects as of 16-Feb-2019
HD Live streaming from Space Station
objects crossing your sky now

METEOR 2-5 DEB

Track METEOR 2-5 DEB now!
10-day predictions


NORAD ID: 38272
Int'l Code: 1979-095BS
Perigee: 826.1 km
Apogee: 867.8 km
Inclination: 81.2 °
Period: 101.7 minutes
Semi major axis: 7217 km
RCS: 0.003 m2 (small)
Launch date: October 31, 1979
Source: Commonwealth of Independent States (former USSR) (CIS)
Launch site: PLESETSK MISSILE AND SPACE COMPLEX (PKMTR)

Note: This is SATELLITE DEBRIS
aabbcc
Your satellite tracking list
Your tracking list is empty




NASA's NSSDC Master Catalog

Two Line Element Set (TLE):
1 38272U 79095BS  19046.43942310  .00000607  00000-0  30189-3 0  9995
2 38272  81.2018 291.7688 0028904 222.6351 255.5730 14.15734191396291
Source of the keplerian elements: AFSPC